Location: *
(46.1833°N, 22.7667°E)
Time: 03:14:32
(UTC+00:00)

Meteor 1-24 Rocket - Pass Details

Date: 17 September 2019
Orbit: 791 x 926 km, 81.2° (Epoch: 14 October)

Event Time Altitude Azimuth Distance (km) Brightness Sun altitude
Rises 19:39:55 0° 344° (NNW) 3,443 7.7 -29.8°
Reaches altitude 10° 19:42:22 10° 339° (NNW) 2,523 6.9 -30.1°
Maximum altitude 19:47:53 50° 266° (W) 1,124 4.4 -30.8°
Enters shadow 19:48:33 48° 244° (WSW) 1,160 4.4 -30.9°
